D0A0126CE Weather Reports


Display with metric or nautical units.
time (UTC)temp
F
wind
direction
speed
MPH
gust
MPH
rain 1hr
in
rain 24hr
in
rain mn
in
humidity
%
barometer
mb
20260506163139 40 318 2.0 10.0 0.00 0.00 0.00 96 979.5
20260506161539 40 313 3.0 9.0 0.00 0.00 0.00 96 979.7
20260506160038 40 323 5.0 10.0 0.00 0.00 0.00 96 979.8
20260506154537 40 323 5.0 10.0 0.00 0.00 0.00 96 979.5
20260506153035 40 321 5.0 11.0 0.00 0.00 0.00 96 979.5
20260506151535 40 324 6.0 18.0 0.00 0.00 0.00 96 979.6
20260506150035 41 319 5.0 10.0 0.00 0.00 0.00 96 979.7
20260506144538 41 315 7.0 12.0 0.00 0.00 0.00 96 979.7
20260506143036 41 325 5.0 10.0 0.00 0.00 0.00 95 979.8
20260506141534 41 325 5.0 11.0 0.00 0.00 0.00 95 979.9
20260506140038 41 321 4.0 11.0 0.00 0.00 0.00 95 980.1
20260506134537 41 320 5.0 11.0 0.00 0.00 0.00 95 979.9
20260506133038 41 332 7.0 13.0 0.00 0.00 0.00 94 979.8
20260506131546 40 319 7.0 13.0 0.00 0.00 0.00 94 979.8
20260506130042 40 326 7.0 12.0 0.00 0.00 0.00 93 979.8
20260506124532 40 315 6.0 14.0 0.00 0.01 0.00 93 979.8
20260506123031 41 325 6.0 15.0 0.00 0.01 0.00 93 979.8
20260506121528 41 324 2.0 10.0 0.00 0.01 0.00 93 979.8
20260506120029 41 319 5.0 12.0 0.00 0.01 0.00 93 979.6
20260506114530 41 321 4.0 9.0 0.00 0.01 0.00 94 979.7
20260506113025 41 329 5.0 13.0 0.00 0.01 0.00 95 979.7
20260506111524 41 317 6.0 12.0 0.00 0.01 0.00 95 979.9
20260506110025 42 323 4.0 11.0 0.00 0.01 0.00 95 979.6
20260506104522 42 321 5.0 13.0 0.00 0.01 0.00 95 979.5
20260506103025 42 315 5.0 10.0 0.00 0.01 0.00 95 979.6
20260506101538 42 316 5.0 12.0 0.00 0.01 0.00 95 979.7
20260506100023 42 321 5.0 10.0 0.00 0.01 0.00 95 979.7
20260506094525 42 331 5.0 10.0 0.00 0.01 0.00 95 979.8
20260506093025 42 333 8.0 12.0 0.00 0.01 0.00 96 979.5
20260506091520 42 311 7.0 11.0 0.00 0.01 0.00 96 979.3
20260506090019 43 323 7.0 13.0 0.00 0.01 0.00 97 979.2
20260506084517 43 323 8.0 13.0 0.00 0.01 0.00 97 979.0
20260506083015 44 324 6.0 12.0 0.00 0.01 0.00 97 979.5
20260506081514 44 344 7.0 12.0 0.00 0.01 0.00 97 979.3
20260506073024 43 319 7.0 11.0 0.00 0.01 0.00 97 979.5
20260506071509 43 350 8.0 13.0 0.00 0.01 0.00 97 979.9